WA1DLZ Weather Reports


time (UTC)temp
F
wind
direction
speed
knots
gust
knots
rain 1hr
in
rain 24hr
in
rain mn
in
humidity
%
barometer
mb
20260504212003 62 214 1.7 7.0 0.00 0.02 0.02 53 1004.7
20260504211503 62 266 2.6 7.8 0.00 0.02 0.02 53 1004.7
20260504211003 62 223 0.9 5.2 0.00 0.02 0.02 52 1004.7
20260504210503 63 237 0.0 1.7 0.00 0.02 0.02 53 1004.7
20260504210004 63 240 0.0 7.8 0.00 0.02 0.02 53 1004.6
20260504205503 63 226 4.3 8.7 0.00 0.02 0.02 54 1004.6
20260504205003 63 258 0.0 2.6 0.00 0.02 0.02 55 1004.5
20260504204503 62 258 0.0 4.3 0.00 0.02 0.02 57 1004.6
20260504204003 61 222 0.9 11.3 0.00 0.02 0.02 55 1004.5
20260504203503 61 219 0.0 11.3 0.00 0.02 0.02 56 1004.5
20260504203003 61 235 0.9 1.7 0.00 0.02 0.02 57 1004.5
20260504202003 60 247 0.9 8.7 0.00 0.02 0.02 58 1004.6
20260504201503 60 248 2.6 7.0 0.00 0.02 0.02 57 1004.5
20260504201003 60 237 4.3 11.3 0.00 0.02 0.02 58 1004.7
20260504200503 60 241 0.0 7.8 0.00 0.02 0.02 59 1004.6
20260504200004 60 240 1.7 8.7 0.00 0.02 0.02 57 1004.6
20260504195003 61 298 0.0 6.1 0.00 0.02 0.02 58 1004.6
20260504194503 61 215 0.9 4.3 0.00 0.02 0.02 59 1004.5
20260504193504 61 242 0.9 5.2 0.00 0.02 0.02 60 1004.5
20260504193003 61 315 0.0 1.7 0.00 0.02 0.02 58 1004.4
20260504192503 60 216 0.0 8.7 0.00 0.02 0.02 60 1004.5
20260504192003 60 236 2.6 12.2 0.00 0.02 0.02 60 1004.5
20260504191503 60 266 0.9 10.4 0.00 0.02 0.02 59 1004.5
20260504191003 60 263 0.0 7.0 0.00 0.02 0.02 60 1004.5
20260504190503 61 227 0.9 5.2 0.00 0.02 0.02 59 1004.6
20260504190003 61 307 0.9 5.2 0.00 0.02 0.02 58 1004.5
20260504185504 61 244 0.0 7.8 0.00 0.02 0.02 60 1004.6
20260504185003 60 297 0.9 11.3 0.00 0.02 0.02 62 1004.7
20260504184503 59 325 2.6 10.4 0.00 0.02 0.02 61 1004.7
20260504184003 58 236 1.7 13.0 0.00 0.02 0.02 62 1004.7
20260504183503 58 235 1.7 7.8 0.00 0.02 0.02 64 1004.8
20260504183003 58 221 0.9 13.0 0.00 0.02 0.02 65 1004.7
20260504182003 59 216 2.6 7.8 0.00 0.02 0.02 63 1004.9
20260504181503 60 231 3.5 12.2 0.00 0.02 0.02 62 1004.9
20260504181004 60 223 6.1 20.0 0.00 0.02 0.02 64 1004.9
20260504180503 59 259 1.7 15.6 0.00 0.02 0.02 66 1004.9
20260504180004 58 291 0.9 14.8 0.00 0.02 0.02 68 1005.0
20260504175503 57 222 6.1 14.8 0.00 0.02 0.02 69 1005.0
20260504175003 58 240 4.3 11.3 0.00 0.02 0.02 68 1005.0
20260504174503 57 233 3.5 13.9 0.00 0.02 0.02 72 1005.1
20260504174004 57 301 0.9 7.8 0.00 0.02 0.02 72 1005.2
20260504173503 56 240 0.9 12.2 0.01 0.02 0.02 78 1005.2
20260504173003 54 303 2.6 14.8 0.01 0.02 0.02 77 1005.2
20260504172503 54 222 3.5 10.4 0.02 0.02 0.02 79 1005.1
20260504172004 53 238 4.3 10.4 0.02 0.02 0.02 81 1005.1
20260504171503 53 244 0.9 12.2 0.02 0.02 0.02 79 1005.2
20260504171004 53 230 2.6 10.4 0.02 0.02 0.02 84 1005.2
20260504170503 52 241 4.3 10.4 0.02 0.02 0.02 86 1005.1
20260504141004 51 232 1.7 7.0 0.00 0.07 0.00 63 1005.7
20260504140503 51 197 1.7 5.2 0.00 0.07 0.00 62 1005.8
20260504110504 40 244 0.0 0.0 0.00 0.09 0.00 68 1006.9
20260504100503 38 244 0.0 2.6 0.00 0.09 0.00 71 1006.8
20260504082004 29 236 0.0 0.0 0.00 0.12 0.00 94 1006.5
20260504081504 29 236 0.0 0.0 0.00 0.12 0.00 94 1006.4
20260504080504 29 236 0.0 0.0 0.00 0.12 0.00 94 1006.5
20260504050004 31 236 0.0 0.0 0.00 0.12 0.00 91 1006.2
20260504045504 31 236 0.0 0.0 0.00 0.12 0.00 90 1006.2
20260504045005 31 236 0.0 0.0 0.00 0.12 0.00 90 1006.2
20260504044004 32 236 0.0 0.0 0.00 0.12 0.00 89 1006.2
20260504043505 32 236 0.0 0.0 0.00 0.12 0.00 88 1006.2
20260504043004 32 236 0.0 0.0 0.00 0.12 0.00 87 1006.1
20260504042505 33 236 0.0 0.0 0.00 0.12 0.00 87 1006.1
20260504042004 33 236 0.0 0.0 0.00 0.12 0.00 86 1006.1
20260504041503 33 236 0.0 0.0 0.00 0.12 0.00 86 1006.1
20260504041003 33 236 0.0 0.0 0.00 0.12 0.00 85 1006.0
20260504040503 34 236 0.0 0.0 0.00 0.12 0.00 84 1006.0
20260504040002 34 236 0.0 0.0 0.00 0.12 0.00 83 1006.0
20260504035503 35 236 0.0 0.0 0.00 0.12 0.12 82 1006.0
20260504035003 35 236 0.0 0.0 0.00 0.12 0.12 80 1006.0
20260504034503 36 236 0.0 0.0 0.00 0.12 0.12 79 1005.9
20260504034002 37 236 0.0 0.0 0.00 0.12 0.12 77 1005.9
20260504033503 37 236 0.0 0.0 0.00 0.13 0.12 75 1005.9
20260504033003 37 236 0.0 0.0 0.00 0.13 0.12 75 1005.9
20260504032502 37 236 0.0 0.0 0.00 0.13 0.12 75 1005.9
20260504032003 37 236 0.0 0.0 0.00 0.13 0.12 74 1005.9
20260504031503 36 236 0.0 0.0 0.00 0.13 0.12 75 1005.9
20260504031002 37 236 0.0 0.0 0.00 0.13 0.12 77 1005.9
20260504030503 37 236 0.0 0.0 0.00 0.13 0.12 74 1005.8
20260504025503 37 236 0.0 0.0 0.00 0.13 0.12 74 1005.7
20260504025002 37 236 0.0 0.0 0.00 0.14 0.12 73 1005.7
20260504024003 38 236 0.0 0.0 0.00 0.14 0.12 72 1005.7
20260504023503 39 236 0.0 0.0 0.00 0.14 0.12 71 1005.7
20260504023003 39 236 0.0 0.0 0.00 0.14 0.12 69 1005.6
20260504022502 39 236 0.0 0.0 0.00 0.14 0.12 69 1005.7
20260504022003 39 236 0.0 0.0 0.00 0.14 0.12 66 1005.7
20260504021503 40 236 0.0 0.0 0.00 0.14 0.12 66 1005.7
20260504021003 40 224 0.0 4.3 0.00 0.14 0.12 66 1005.7
20260504020502 40 221 0.0 0.0 0.00 0.14 0.12 65 1005.7
20260504020003 40 221 0.0 0.0 0.00 0.14 0.12 64 1005.6
20260504015503 41 221 0.0 0.0 0.00 0.14 0.12 65 1005.6
20260504015003 41 221 0.0 0.0 0.00 0.14 0.12 64 1005.6
20260504014503 41 221 0.0 0.0 0.00 0.14 0.12 63 1005.6
20260504014003 41 221 0.0 0.0 0.00 0.14 0.12 61 1005.5
20260504013003 42 221 0.0 0.0 0.00 0.14 0.12 61 1005.5
20260504012503 42 221 0.0 1.7 0.00 0.14 0.12 61 1005.4
20260504012003 42 221 0.0 0.9 0.00 0.14 0.12 60 1005.3
20260504011503 43 220 0.0 0.0 0.00 0.14 0.12 60 1005.3
20260504011003 43 220 0.0 0.9 0.00 0.14 0.12 59 1005.3
20260504010502 43 217 0.9 2.6 0.00 0.14 0.12 59 1005.2
20260504010003 43 302 0.0 0.9 0.00 0.14 0.12 59 1005.1
20260504005503 43 302 0.9 5.2 0.00 0.14 0.12 60 1005.1
20260504005003 44 333 0.0 4.3 0.00 0.14 0.12 59 1005.0
20260504004503 44 333 0.0 0.0 0.00 0.14 0.12 58 1004.9
20260504004003 44 333 0.0 4.3 0.00 0.14 0.12 57 1004.8
20260504003502 44 355 0.0 1.7 0.00 0.15 0.12 57 1004.7
20260504002503 44 302 0.9 2.6 0.00 0.15 0.12 56 1004.6
20260504002003 44 303 0.0 2.6 0.00 0.15 0.12 56 1004.5
20260504001502 44 302 0.9 6.1 0.00 0.15 0.12 57 1004.5
20260504001003 45 300 0.0 5.2 0.00 0.15 0.12 57 1004.4
20260504000503 45 332 0.9 5.2 0.00 0.15 0.12 54 1004.3
20260504000003 45 268 0.9 7.0 0.00 0.15 0.12 55 1004.2
20260503235502 45 225 0.0 4.3 0.00 0.15 0.12 55 1004.2
20260503235003 45 219 0.9 8.7 0.00 0.15 0.12 54 1004.1
20260503234503 45 313 0.9 2.6 0.00 0.15 0.12 55 1004.0
20260503233003 46 306 0.0 4.3 0.00 0.15 0.12 57 1003.9
20260503232502 46 306 0.0 0.0 0.00 0.15 0.12 58 1003.8
20260503232003 46 306 0.0 6.1 0.00 0.15 0.12 53 1003.8
20260503231503 46 319 0.9 7.0 0.00 0.15 0.12 52 1003.7
20260503231003 46 326 2.6 7.0 0.00 0.15 0.12 52 1003.7
20260503230503 46 318 0.9 5.2 0.00 0.15 0.12 52 1003.7
20260503230002 47 350 0.0 10.4 0.00 0.16 0.12 52 1003.6
20260503225503 47 346 1.7 6.1 0.00 0.16 0.12 50 1003.6
20260503225003 47 312 2.6 6.1 0.00 0.16 0.12 49 1003.5
20260503224503 48 300 3.5 12.2 0.00 0.16 0.12 47 1003.5
20260503224003 48 314 0.9 5.2 0.00 0.16 0.12 49 1003.3
20260503223503 48 319 2.6 10.4 0.00 0.17 0.12 48 1003.3
20260503223003 48 300 4.3 13.0 0.00 0.17 0.12 49 1003.2
20260503222503 47 331 4.3 7.8 0.00 0.17 0.12 52 1003.1
20260503221503 48 322 2.6 7.0 0.00 0.17 0.12 52 1003.0
20260503221003 48 329 1.7 6.1 0.00 0.17 0.12 52 1002.8
20260503220503 48 264 0.9 7.0 0.00 0.17 0.12 52 1002.7
20260503220003 49 290 0.9 10.4 0.00 0.17 0.12 52 1002.6
20260503215503 49 304 2.6 12.2 0.00 0.17 0.12 51 1002.5
20260503215003 49 346 0.9 5.2 0.00 0.17 0.12 53 1002.5
20260503214503 49 338 0.0 10.4 0.00 0.17 0.12 53 1002.5
20260503214003 49 306 1.7 10.4 0.00 0.17 0.12 49 1002.4
20260503213503 49 323 0.0 7.0 0.00 0.17 0.12 50 1002.4
20260503213003 50 357 3.5 11.3 0.00 0.17 0.12 50 1002.4
20260503212502 50 327 0.9 10.4 0.00 0.17 0.12 51 1002.4